Weather in Fréjus

France     43°25′55″N   6°43′55″E
temp.,
°C
wind,
m/s
gust,
m/s
humid.,
%
clouds,
%
prec.,
mm/h
press.,
hPa
HPBL,
m
20 april, tue
tue2023:00+9nw22664 0.0 101649
02:00+8wnw22730 0.0 101643
05:00+7nw22743 0.0 101531
08:00+9nw11660 0.0 101663
11:00+15se22460 0.0 1016955
14:00+16sse434959 0.0 10151137
17:00+15sse4358100 0.0 10151058
20:00+12se1172100 0.0 1015111
21 april, wed
wed2123:00+10n1180100 0.0 101647
02:00+10n1181100 0.0 101731
05:00+10n1185100 0.0 101632
08:00+11n1180100 0.1 101683
11:00+13ene2375100 0.9 1017507
14:00+14e3369100 1.9 1017882
17:00+15ese445792 0.3 10161315
20:00+11e227632 0.3 1016140
22 april, thu
thu2223:00+9nne228512 0.0 101880
02:00+8nnw22845 0.0 101789
05:00+8n22805 0.0 101788
08:00+10ne25728 0.0 1017389
11:00+15e58625 0.0 10181206
14:00+16e57535 0.0 10171110
17:00+16e46506 0.0 1016957
20:00+12ene12657 0.0 1017100
23 april, fri
fri2323:00+10n22685 0.0 101831
02:00+9nnw11710 0.0 101822
05:00+9n22770 0.0 101828
08:00+11n11700 0.0 101868
11:00+17ese34460 0.0 1019944
14:00+19ese44440 0.0 10181103
17:00+18se33435 0.0 10181008
20:00+15se01576 0.0 101931
24 april, sat
sat2423:00+13nw22649 0.0 102030
02:00+12nw22647 0.0 102029
05:00+11n11691 0.0 102017
08:00+13nnw11650 0.0 102057
11:00+18se21501 0.0 1021873
14:00+19se425310 0.0 1020956
17:00+18s33543 0.0 1019727
20:00+14sse12685 0.0 101964